Probability
0 0 0 0 0 0 0 0 0 0 1 1 1 1 1 1 0 0 1 3 5 4 2 2 4 4 2 0 0 0 0 0 0 0 0 0 0 0 0 0 0 0 0 0 0 0 0 0 0
0 0 0 0 0 0 0 0 0 1 2 3 2 2 2 2 2 2 3 6 8 6 4 5 7 6 4 1 0 0 0 0 0 0 0 0 0 0 0 0 0 0 0 0 0 0 0 0 0
0 0 0 0 0 0 0 0 0 1 4 6 5 3 2 4 6 7 11 16 15 12 9 10 12 10 7 4 1 0 0 0 0 0 0 0 0 0 0 0 0 0 0 0 0 0 0 0 0
0 0 0 0 0 0 0 0 0 2 8 14 13 7 4 8 16 22 28 29 24 19 16 16 16 14 10 7 3 1 0 0 0 0 0 0 0 0 0 0 0 0 0 0 0 0 0 0 0
0 0 0 0 0 0 0 0 2 7 17 26 24 16 12 20 35 43 42 36 30 24 21 21 21 17 13 8 5 1 0 0 0 0 0 0 0 0 0 0 0 0 0 0 0 0 0 0 0
0 0 0 0 0 0 0 0 4 14 26 31 29 25 23 35 51 54 44 35 32 29 26 25 23 19 13 9 6 3 1 0 0 0 0 0 0 0 0 0 0 0 0 0 0 0 0 0 0
0 0 0 0 0 0 0 0 4 16 26 28 29 29 30 43 57 57 44 35 32 31 29 27 22 16 11 8 7 4 1 0 0 0 0 0 0 0 0 0 0 0 0 0 0 0 0 0 0
0 0 0 0 0 0 0 1 5 14 22 27 28 29 33 46 59 61 52 41 33 31 31 27 21 15 9 7 6 4 1 0 0 0 0 0 0 0 0 0 0 0 0 0 0 0 0 0 0
0 0 0 0 0 0 0 2 7 16 26 32 35 36 41 56 67 69 65 53 39 32 31 28 24 19 14 10 8 5 2 1 0 0 0 0 0 0 0 0 0 0 0 0 0 0 0 0 0
0 0 0 0 0 0 1 3 8 17 27 36 45 50 55 67 75 76 73 64 49 38 32 28 27 24 20 15 11 8 6 3 1 0 0 0 0 0 0 0 0 0 0 0 0 0 0 0 0
0 0 0 0 0 0 1 3 8 14 22 34 48 56 61 70 77 79 77 68 55 44 35 27 25 23 19 15 13 12 9 4 2 1 0 0 0 0 0 0 0 0 0 0 0 0 0 0 0
0 0 0 0 0 0 1 3 7 11 21 37 50 55 60 67 74 77 74 65 52 43 36 28 22 18 15 13 13 11 8 5 3 2 0 0 0 0 0 0 0 0 0 0 0 0 0 0 0
0 0 0 0 0 0 0 2 5 12 28 48 57 56 58 63 68 69 67 59 49 40 34 27 20 14 12 12 12 9 6 5 3 1 0 0 0 0 0 0 0 0 0 0 0 0 0 0 0
0 0 0 0 0 0 0 1 5 16 37 54 59 56 54 58 60 60 59 54 46 39 32 24 17 11 10 12 11 7 3 3 2 0 0 0 0 0 0 0 0 0 0 0 0 0 0 0 0
0 0 0 0 0 0 0 0 6 20 39 54 59 56 53 53 55 55 55 49 43 39 32 24 16 11 10 10 9 6 3 1 0 0 0 0 0 0 0 0 0 0 0 0 0 0 0 0 0
0 0 0 0 0 0 0 1 8 21 36 50 56 55 54 53 52 53 53 48 41 37 33 26 20 15 13 9 6 5 3 2 1 0 0 0 0 0 0 0 0 0 0 0 0 0 0 0 0
0 0 0 0 0 0 0 4 11 22 34 46 53 56 57 56 53 53 52 47 42 38 36 33 27 21 15 8 5 4 5 4 3 1 1 1 2 1 0 0 0 0 0 0 0 0 0 0 0
0 0 0 0 0 0 2 7 15 25 35 45 54 58 59 57 52 50 49 46 43 40 40 38 33 25 15 8 5 5 7 8 6 4 2 2 3 2 1 1 0 0 0 0 0 0 0 0 0
0 0 0 0 0 0 3 8 15 26 35 43 52 58 58 54 50 49 46 44 41 39 38 37 32 24 14 8 6 7 11 12 10 6 2 1 3 3 3 2 1 1 0 0 0 0 0 0 0
0 0 0 0 1 0 2 5 11 20 29 36 45 51 53 50 48 47 44 42 40 36 33 30 26 20 14 9 8 9 12 13 10 6 3 3 3 4 3 3 3 2 1 0 0 0 0 0 0
0 0 0 0 0 0 1 2 5 12 17 24 33 42 46 45 44 43 41 39 37 34 29 24 21 19 15 11 10 11 12 11 9 8 7 6 5 5 4 3 3 3 1 0 0 0 0 0 0
0 0 0 0 0 0 0 1 3 6 9 13 20 30 36 37 36 37 36 34 32 29 24 19 17 17 15 12 11 12 12 11 9 9 9 8 7 6 4 3 3 3 2 1 1 0 0 0 0
0 0 0 0 0 0 0 1 2 3 4 6 10 19 26 27 27 28 29 28 26 24 20 16 14 13 13 11 9 9 10 9 8 8 8 8 7 6 4 3 3 3 2 2 2 1 0 0 0
0 0 0 0 0 0 0 0 1 1 2 3 6 12 17 19 19 19 21 21 21 20 17 13 10 10 11 9 6 5 5 4 3 4 6 7 7 6 4 3 3 2 1 1 1 1 0 0 0
0 0 0 0 0 0 0 0 0 0 1 2 3 7 11 13 13 13 13 14 15 15 13 10 8 8 8 7 4 2 1 0 0 1 2 5 6 5 4 3 3 2 1 1 1 0 0 0 0
0 0 0 0 0 0 0 0 0 0 0 1 3 5 10 13 14 13 10 9 9 9 9 7 6 5 5 4 3 1 0 0 0 0 0 2 4 3 3 3 3 3 2 2 1 0 0 0 0
0 0 0 0 0 0 0 0 0 0 0 2 4 8 11 15 16 13 8 5 5 5 5 5 4 3 3 3 3 1 1 0 0 0 0 1 1 1 1 1 2 3 3 3 2 1 0 0 0
0 0 0 0 0 0 0 0 0 0 0 1 5 8 11 13 14 11 6 2 2 2 2 2 3 3 3 3 3 3 2 1 0 0 0 0 0 0 0 0 1 3 3 3 2 1 0 0 0
0 0 0 0 0 0 0 0 0 0 0 1 4 6 7 8 8 6 4 1 1 1 2 2 3 3 3 3 3 3 3 1 0 0 0 0 0 0 0 0 1 2 2 2 1 0 0 0 0
0 0 0 0 0 0 0 0 0 0 1 2 3 4 5 5 4 4 3 2 2 2 3 3 3 3 3 3 3 3 3 2 1 0 0 0 0 0 0 0 0 1 1 1 0 0 0 0 0
Wind_Speed
6 4 2 0 2 3 3 4 4 5 5 7 10 10 8 5 4 4 5 15 18 16 13 16 18 19 19 18 18 17 17 16 16 16 15 15 15 15 15 15 15 14 14 14 14 14 14 14 15
4 4 1 3 4 3 4 3 5 6 8 11 11 10 8 5 6 9 8 16 19 16 12 14 19 19 19 18 18 17 17 16 16 15 15 15 15 15 15 14 14 14 14 14 14 13 13 13 14
3 2 2 2 0 3 4 2 5 6 9 10 7 5 5 6 8 8 10 19 17 14 12 15 21 20 19 19 18 17 17 16 16 15 15 14 14 14 14 14 14 14 13 13 13 13 13 13 12
1 2 2 1 6 9 7 7 4 7 6 8 9 6 3 3 6 12 19 19 17 13 12 16 21 21 20 19 18 18 17 16 16 15 15 14 14 14 14 13 13 13 13 12 12 12 12 12 11
2 3 2 3 7 8 7 8 8 8 6 8 10 6 2 2 13 21 20 19 18 13 11 14 21 21 20 19 19 18 17 17 16 15 15 15 14 14 14 13 13 13 12 12 11 11 11 10 10
2 2 1 4 7 8 7 4 7 9 9 9 10 8 2 7 17 19 18 16 17 16 13 13 20 21 20 19 19 18 17 17 16 15 15 14 14 13 13 13 12 12 12 11 10 10 9 8 8
3 2 3 5 7 7 4 4 7 8 9 8 10 8 3 7 14 16 15 14 14 15 14 11 12 15 19 19 19 18 17 17 16 15 15 14 14 13 12 12 12 12 11 10 9 8 7 7 6
5 2 3 4 6 6 3 2 6 10 7 8 8 10 7 10 14 15 15 13 12 12 12 11 10 9 10 12 18 18 17 17 16 15 15 14 14 13 12 11 11 11 10 9 8 7 6 5 5
3 1 5 6 5 6 3 2 3 5 8 5 3 6 10 17 17 16 14 12 11 11 9 11 11 9 8 8 14 15 16 16 15 13 15 12 6 6 7 9 11 11 10 9 7 6 5 4 3
5 4 11 9 7 7 4 1 4 5 5 4 4 5 13 17 18 18 18 17 16 14 12 10 11 11 10 9 8 5 7 7 6 5 6 5 4 4 6 8 11 10 9 8 6 5 3 2 1
5 8 11 13 13 7 2 1 2 8 3 6 10 12 15 16 17 17 17 17 17 15 14 11 11 10 9 6 6 4 3 4 5 5 5 5 4 3 3 3 4 4 5 3 3 2 1 1 1
5 10 11 11 10 5 3 2 2 3 6 9 14 18 17 16 16 17 16 16 14 15 14 13 12 10 9 7 7 5 4 4 4 5 6 4 3 3 3 2 2 2 1 2 1 1 1 1 1
7 9 12 11 8 5 1 1 3 2 6 11 13 15 14 13 11 11 12 14 15 15 14 14 13 11 10 8 6 7 6 5 5 5 5 5 5 5 4 3 3 2 2 2 2 2 1 1 1
7 9 12 10 8 4 2 2 3 3 8 12 14 13 13 13 13 12 13 14 15 15 14 12 12 12 10 8 6 6 5 5 4 4 5 6 5 5 5 4 3 3 3 3 3 3 2 1 2
5 8 11 8 5 3 1 3 3 6 10 11 12 12 12 11 11 14 15 15 15 14 13 13 13 12 12 10 8 6 5 5 4 4 5 6 5 6 5 4 3 3 3 3 2 2 2 2 2
6 5 6 9 6 6 2 6 5 6 9 10 10 11 10 9 10 12 13 12 12 12 12 13 13 12 11 9 7 5 5 5 4 4 4 6 6 6 5 4 3 3 3 3 3 2 2 2 2
4 3 7 12 8 4 3 4 4 5 7 9 9 9 9 8 8 9 12 12 12 13 13 12 11 12 11 9 6 5 5 5 5 4 4 4 5 6 5 4 3 3 3 3 3 2 3 2 2
6 6 8 11 8 3 1 2 3 5 8 9 10 10 8 9 8 8 10 11 11 11 10 11 11 11 10 8 5 4 4 4 4 4 5 5 5 5 5 3 4 4 4 3 3 3 2 2 2
8 10 13 15 10 2 2 3 5 6 8 10 9 9 9 7 5 6 9 10 10 10 11 11 12 11 10 7 7 6 5 4 4 5 6 6 6 6 5 4 4 4 4 4 4 3 3 1 1
11 12 12 11 7 1 1 1 1 4 6 10 12 11 10 8 7 8 8 9 9 11 11 11 12 12 10 8 6 5 5 4 4 4 5 6 6 6 5 5 4 4 4 4 3 3 2 1 2
13 10 9 8 5 4 2 4 3 1 2 5 8 10 11 12 12 11 9 8 10 11 12 12 11 11 9 8 6 5 4 3 2 3 3 4 5 5 5 6 5 4 4 4 3 3 4 2 0
13 13 9 6 2 3 1 2 5 2 1 1 3 6 9 9 9 11 10 9 10 10 10 10 10 9 9 9 8 9 7 5 5 4 4 4 5 6 6 6 5 4 4 4 3 3 3 4 1
12 11 6 3 1 2 4 2 5 2 1 2 2 5 7 7 9 10 10 9 9 9 9 9 9 8 9 9 9 8 6 4 4 4 5 4 4 5 6 6 5 5 4 4 4 4 3 3 3
9 3 5 5 5 2 4 2 5 3 4 3 1 4 6 7 8 9 8 7 7 7 8 9 9 8 8 9 8 8 8 7 7 6 6 4 3 3 5 5 5 5 4 4 4 4 5 3 3
3 3 4 5 5 5 3 2 6 6 5 3 3 4 7 8 9 10 10 9 8 9 9 9 10 8 8 9 8 8 9 9 9 7 6 5 3 3 4 4 5 4 4 4 4 4 4 3 3
6 9 8 5 5 5 2 3 6 5 4 3 2 4 7 9 10 10 11 10 10 10 9 9 10 9 9 9 8 7 8 7 6 6 6 6 4 4 5 5 5 5 5 5 4 3 3 3 3
6 5 10 8 3 1 3 4 6 3 3 2 1 3 5 8 10 10 10 10 9 9 9 10 10 9 9 8 8 7 8 7 7 7 6 5 4 5 6 6 5 5 5 5 4 3 3 3 2
9 8 6 6 4 2 2 3 5 5 4 2 4 5 5 7 9 10 10 10 9 9 8 8 9 9 8 8 8 7 7 7 8 7 7 7 6 6 6 6 6 5 5 5 4 3 2 3 2
0 2 5 5 6 7 4 7 8 9 7 6 6 6 7 9 10 10 9 9 8 8 8 8 8 7 7 7 7 7 6 6 7 7 7 7 6 7 7 7 6 5 5 5 4 3 3 3 2
3 3 6 5 3 4 5 7 5 6 6 7 6 6 7 8 8 9 9 9 9 8 8 8 8 8 8 7 7 7 6 6 7 7 7 7 7 7 7 6 6 6 5 4 5 4 3 3 3
Wind_Direction
191 195 184 6 33 27 275 243 140 102 73 76 88 94 98 101 139 154 134 138 136 142 147 147 145 144 140 137 134 130 128 125 122 119 118 116 114 114 114 113 114 114 113 114 112 111 110 111 111
182 196 117 37 56 340 279 212 124 128 128 111 97 98 89 75 96 114 123 140 139 141 143 146 145 143 142 139 137 135 132 129 127 126 124 122 120 118 118 117 117 116 115 116 115 114 113 113 114
197 191 90 57 297 237 269 241 151 137 127 118 102 79 89 117 122 128 141 141 137 139 142 148 146 144 143 141 140 138 136 134 133 131 129 127 124 122 119 119 119 119 119 118 117 117 116 115 115
137 65 47 72 262 255 241 249 171 136 107 104 108 83 71 121 136 135 140 142 138 141 144 149 147 145 144 143 142 142 140 139 137 135 134 131 128 125 122 121 122 121 121 120 120 120 119 118 117
98 91 47 294 271 276 260 215 175 136 123 113 108 111 87 65 119 133 143 145 142 142 145 148 147 146 146 146 145 145 144 143 142 139 136 134 130 128 127 125 125 124 123 124 124 123 123 121 120
72 87 72 276 275 281 267 193 143 118 120 125 119 126 132 128 132 141 145 147 146 145 146 148 149 148 149 149 148 148 147 146 144 142 140 137 135 133 132 131 129 128 127 128 129 128 126 122 118
152 142 221 249 279 281 257 174 144 131 137 151 138 123 134 145 142 141 142 144 145 147 147 148 151 151 152 152 151 151 150 149 147 145 143 142 141 139 138 137 136 133 133 134 134 133 131 123 114
167 121 266 259 267 273 259 157 137 136 139 136 132 141 169 167 146 138 137 141 144 148 150 148 148 148 150 153 154 153 152 152 150 149 148 148 147 145 144 141 141 140 139 139 139 138 135 126 115
147 110 253 247 249 270 274 104 109 100 117 124 133 160 158 145 140 137 138 141 147 152 154 151 150 148 146 151 158 155 156 157 154 153 154 148 139 140 145 151 150 148 146 144 143 144 141 126 105
146 193 238 238 250 276 280 131 130 109 102 88 83 97 131 141 144 149 153 157 158 161 161 158 156 153 152 159 151 151 154 153 149 151 149 139 143 155 157 164 157 156 153 150 152 153 147 118 83
192 217 250 263 263 261 275 339 101 131 146 172 157 148 148 149 152 158 162 164 163 162 162 163 160 158 159 152 150 149 144 147 152 155 152 151 150 155 152 149 153 153 154 145 158 150 125 128 142
250 264 266 270 277 275 235 177 113 162 179 167 155 153 156 159 163 167 165 163 160 165 168 165 164 163 162 153 158 156 156 163 165 166 163 156 152 153 154 153 156 153 147 158 158 157 205 230 212
266 278 284 279 283 276 269 223 152 163 142 134 139 147 154 161 165 163 160 162 165 170 170 169 166 165 161 154 164 164 165 170 170 167 167 161 158 161 164 165 169 172 163 163 166 175 186 176 136
272 291 299 291 285 267 224 255 129 191 147 139 141 151 162 162 161 157 163 168 171 171 169 171 169 166 158 157 162 163 167 165 163 164 169 165 160 160 160 161 166 174 170 162 161 162 154 144 124
306 315 313 299 295 284 51 316 224 185 152 146 150 156 163 166 165 167 170 170 171 168 167 170 170 165 158 158 164 160 163 157 156 159 159 159 155 152 151 153 159 167 156 148 137 130 118 126 121
336 330 309 296 301 279 157 254 258 183 151 149 153 155 161 169 176 165 162 163 164 161 165 171 170 162 158 157 158 158 157 154 152 152 150 155 148 146 144 146 155 155 138 131 127 118 107 112 119
336 299 286 294 290 275 166 226 239 189 156 154 152 151 160 165 167 159 157 159 163 163 165 168 163 158 156 152 149 147 146 149 149 146 151 154 147 145 143 148 153 139 124 124 139 121 128 128 127
257 273 282 283 288 304 230 218 203 173 156 156 151 151 164 174 176 161 154 157 158 159 162 162 157 155 150 143 134 128 136 146 145 152 163 156 152 148 144 148 143 130 121 122 120 121 115 133 148
255 274 280 281 282 268 206 203 204 176 149 153 154 155 160 172 157 151 153 154 154 155 160 164 160 158 152 151 151 150 155 157 156 165 165 159 157 154 147 143 135 132 135 144 134 118 108 95 107
261 268 274 285 292 294 181 252 233 174 171 168 163 163 159 155 151 158 158 158 160 162 163 161 162 162 162 160 155 150 148 157 161 160 161 163 160 157 154 144 147 140 132 129 127 121 115 90 120
263 255 256 268 303 2 39 348 331 296 137 151 164 162 161 165 167 168 165 165 164 166 168 165 165 165 162 153 138 128 117 114 128 148 161 171 162 157 151 153 148 144 140 147 152 140 134 132 53
258 256 254 271 314 303 14 278 299 298 357 124 164 164 166 168 171 167 163 163 169 167 160 157 160 161 159 152 149 153 157 161 174 168 165 162 159 157 151 148 146 146 146 152 167 146 138 133 124
240 248 250 259 138 17 360 109 283 330 320 294 219 179 171 173 174 165 161 164 166 160 158 158 159 160 158 157 158 158 157 159 154 151 151 154 157 161 154 148 145 144 147 155 150 136 132 131 139
250 292 352 36 66 3 275 177 270 264 235 257 268 192 182 182 170 161 157 155 162 162 162 161 163 164 162 161 163 164 161 160 157 160 162 160 154 157 157 150 147 148 148 155 151 144 140 137 134
255 98 15 349 2 262 265 157 242 252 238 205 217 203 189 186 170 162 162 168 172 171 168 165 166 169 169 168 170 170 168 166 169 168 168 162 159 166 175 156 153 154 157 155 145 138 140 144 142
224 149 164 200 226 262 308 223 248 256 261 238 213 188 184 177 171 168 171 174 176 174 170 169 172 173 174 175 177 174 171 168 171 172 167 170 173 178 172 161 159 159 157 154 145 141 152 147 149
199 195 173 147 169 169 282 285 295 273 313 359 76 140 172 175 172 171 172 174 176 175 176 176 174 175 179 179 175 173 173 171 172 171 168 169 172 174 166 163 163 163 161 156 148 148 164 151 157
181 171 108 120 152 217 272 267 250 261 255 196 171 171 175 174 172 173 175 175 176 175 174 175 176 180 181 177 176 173 172 171 169 165 168 168 170 167 162 167 169 168 162 154 147 151 162 153 167
96 130 126 132 153 153 205 255 223 210 205 194 190 185 181 173 172 176 176 173 169 165 167 174 175 173 175 173 170 166 167 164 160 163 168 167 166 166 169 172 169 166 163 161 158 168 163 165 177
136 157 137 146 225 163 165 256 257 204 194 185 188 187 172 169 166 167 168 163 163 164 168 174 175 174 173 168 163 163 162 160 160 165 166 163 163 168 166 161 160 166 166 164 161 168 158 160 167